Location: *
(50.0228°S, 177.2688°W)
Time: 11:14:48
(UTC+00:00)

Cosmos 968 Rocket - Pass Details

Date: 07 April 2020
Orbit: 740 x 771 km, 74.0° (Epoch: 25 May)

Event Time Altitude Azimuth Distance (km) Brightness Sun altitude
Rises 08:07:18 0° 202° (SSW) 3,223 7.4 -26.8°
Reaches altitude 10° 08:09:44 10° 197° (SSW) 2,292 6.4 -27.2°
Enters shadow 08:13:34 44° 167° (SSE) 1,046 4.2 -27.7°
